EB1HRW Weather Reports


time (UTC)temp
F
wind
direction
speed
knots
gust
knots
rain 1hr
in
rain 24hr
in
rain mn
in
humidity
%
barometer
mb
20260510233954 49 155 1.7 3.5 0.00 0.00 0.00 82 1012.6
20260510232455 49 146 1.7 3.5 0.00 0.00 0.00 81 1012.5
20260510230953 51 163 0.9 5.2 0.00 0.00 0.00 80 1012.4
20260510225454 51 159 0.0 5.2 0.00 0.24 0.24 80 1012.3
20260510223955 51 198 1.7 3.5 0.00 0.24 0.24 80 1012.3
20260510222454 51 238 0.0 4.3 0.00 0.25 0.25 79 1012.0
20260510220953 51 136 1.7 5.2 0.00 0.26 0.26 80 1012.0
20260510215454 51 153 5.2 2.6 0.00 0.26 0.26 81 1011.9
20260510213955 52 240 0.0 2.6 0.00 0.26 0.26 80 1011.8
20260510212453 52 240 0.9 2.6 0.00 0.26 0.26 79 1011.7
20260510210954 53 242 0.0 0.0 0.00 0.26 0.26 79 1011.6
20260510203954 53 243 0.0 0.0 0.00 0.26 0.26 78 1011.4
20260510202454 55 245 0.0 0.0 0.00 0.26 0.26 77 1011.1
20260510200955 55 245 0.0 0.0 0.00 0.26 0.26 76 1011.0
20260510195457 55 239 0.0 2.6 0.00 0.26 0.26 74 1010.7
20260510193958 55 214 0.0 0.0 0.00 0.26 0.26 75 1010.5
20260510192458 55 205 0.0 10.4 0.00 0.26 0.26 73 1010.4
20260510190954 57 205 4.3 7.8 0.00 0.26 0.26 71 1010.4
20260510185454 59 253 3.5 7.8 0.00 0.26 0.26 59 1010.1
20260510182454 60 255 6.1 6.1 0.00 0.26 0.26 58 1009.9
20260510180954 60 266 4.3 7.8 0.00 0.26 0.26 60 1009.7
20260510175455 60 278 3.5 9.6 0.00 0.26 0.26 62 1009.6
20260510173954 59 265 8.7 11.3 0.00 0.26 0.26 61 1009.6
20260510172454 60 262 7.0 10.4 0.00 0.26 0.26 59 1009.6
20260510170955 59 254 7.8 14.8 0.00 0.26 0.26 59 1009.6
20260510165453 59 238 9.6 15.6 0.00 0.26 0.26 58 1009.6
20260510163954 60 254 6.1 13.0 0.00 0.26 0.26 58 1009.6
20260510162454 59 277 4.3 15.6 0.00 0.26 0.26 63 1009.6
20260510160955 58 242 7.0 15.6 0.00 0.26 0.26 66 1009.4
20260510155454 57 250 6.1 20.9 0.00 0.26 0.26 69 1009.4
20260510153954 59 295 5.2 12.2 0.00 0.26 0.26 70 1009.0
20260510150954 57 203 7.0 16.5 0.00 0.26 0.26 76 1009.2
20260510145453 57 215 7.0 18.2 0.00 0.26 0.26 77 1009.3
20260510143954 57 255 7.8 13.9 0.00 0.26 0.26 74 1009.3
20260510142455 56 221 6.1 12.2 0.00 0.26 0.26 81 1009.5
20260510140954 56 210 5.2 12.2 0.00 0.26 0.26 83 1009.6
20260510135454 53 245 3.5 11.3 0.00 0.26 0.26 76 1009.6
20260510133953 51 227 2.6 12.2 0.00 0.26 0.26 76 1009.9
20260510132454 51 219 6.1 12.2 0.00 0.26 0.26 75 1009.8
20260510130955 51 79 0.9 12.2 0.00 0.26 0.26 76 1009.9
20260510125453 51 153 7.8 12.2 0.00 0.26 0.26 76 1010.0
20260510123954 50 225 5.2 15.6 0.00 0.26 0.26 75 1010.3
20260510122455 50 235 7.0 9.6 0.00 0.26 0.26 75 1010.5
20260510120956 50 226 4.3 11.3 0.00 0.26 0.26 76 1010.7
20260510120039 49 250 3.5 10.4 0.00 0.26 0.26 76 1010.6
20260510114538 49 257 0.0 8.7 0.00 0.26 0.26 77 1010.8
20260510113037 49 202 0.9 7.8 0.00 0.26 0.26 77 1010.9
20260510111538 48 278 3.5 6.1 0.01 0.26 0.26 77 1010.9
20260510110038 47 248 2.6 6.1 0.02 0.26 0.26 77 1010.8
20260510104538 47 230 4.3 6.1 0.03 0.26 0.26 79 1010.7
20260510103038 46 232 0.0 8.7 0.10 0.26 0.26 79 1011.0
20260510101538 46 267 5.2 16.5 0.17 0.25 0.25 79 1011.4
20260510100039 47 271 9.6 13.9 0.21 0.24 0.24 78 1011.5
20260510095158 47 255 7.0 14.8 0.20 0.23 0.23 78 1011.5
20260510093658 47 199 1.7 13.9 0.18 0.20 0.20 78 1011.1
20260510092158 48 214 4.3 9.6 0.06 0.09 0.09 77 1010.9
20260510085158 50 289 2.6 7.0 0.00 0.02 0.02 78 1009.9
20260510083658 50 204 1.7 5.2 0.00 0.02 0.02 78 1009.8
20260510082158 50 243 0.0 8.7 0.00 0.02 0.02 78 1009.8
20260510080659 50 152 4.3 7.0 0.00 0.02 0.02 77 1009.8
20260510075157 50 146 3.5 3.5 0.00 0.02 0.02 78 1009.6
20260510073658 50 92 1.7 4.3 0.00 0.02 0.02 78 1009.7
20260510072158 49 83 1.7 4.3 0.00 0.02 0.02 78 1009.7
20260510070659 49 136 0.9 4.3 0.00 0.02 0.02 78 1009.7
20260510065158 49 155 0.9 3.5 0.00 0.02 0.02 78 1009.8
20260510063658 49 151 0.0 4.3 0.00 0.02 0.02 78 1009.4
20260510062200 49 146 0.0 4.3 0.00 0.02 0.02 79 1009.4
20260510060657 48 129 2.6 4.3 0.00 0.02 0.02 79 1009.6
20260510055159 48 160 2.6 3.5 0.00 0.02 0.02 79 1009.6
20260510053657 48 158 2.6 4.3 0.00 0.02 0.02 79 1009.4
20260510052159 48 282 0.0 5.2 0.00 0.02 0.02 79 1009.6
20260510050658 48 167 4.3 4.3 0.00 0.02 0.02 79 1009.5
20260510045159 48 155 2.6 2.6 0.00 0.02 0.02 78 1009.6
20260510043657 48 145 0.0 4.3 0.00 0.02 0.02 78 1009.6
20260510042158 48 169 0.9 3.5 0.00 0.02 0.02 79 1009.7
20260510040659 48 173 0.9 3.5 0.00 0.02 0.02 78 1009.7
20260510035157 48 190 0.9 4.3 0.00 0.02 0.02 78 1009.9
20260510033658 48 152 2.6 3.5 0.00 0.02 0.02 78 1010.0
20260510032158 48 221 0.0 4.3 0.00 0.02 0.02 78 1010.1
20260510030659 48 222 0.0 6.1 0.00 0.02 0.02 78 1010.1
20260510023659 48 187 1.7 6.1 0.00 0.02 0.02 78 1010.1
20260510022157 48 135 1.7 8.7 0.00 0.02 0.02 78 1010.2
20260510020658 48 189 2.6 6.1 0.00 0.02 0.02 78 1010.2
20260510015158 48 244 0.0 5.2 0.00 0.02 0.02 77 1010.2
20260510012157 48 139 2.6 8.7 0.00 0.02 0.02 77 1010.3
20260510010657 48 148 2.6 6.1 0.00 0.02 0.02 77 1010.4
20260510005158 48 173 4.3 4.3 0.01 0.02 0.02 77 1010.5
20260510003658 48 161 1.7 3.5 0.01 0.02 0.02 77 1010.6
20260510002159 48 155 0.0 4.3 0.02 0.02 0.02 76 1010.5
20260510000657 48 150 1.7 5.2 0.02 0.02 0.02 76 1010.6
20260509235159 49 132 0.0 4.3 0.02 0.02 0.02 76 1010.4